Location: Unspecified
(43.0000°N, 0.0000°E)
Time: 08:11:35
(UTC+00:00)

ISS - Visible Passes

Search period start: 23 May 2019 00:00
Search period end: 02 June 2019 00:00
Orbit: 407 x 410 km, 51.6° (Epoch: 23 May)

Date Brightness Start Highest point End Pass type
(mag) Time Alt. Az. Time Alt. Az. Time Alt. Az.
23 May -1.0 21:27:20 10° NW 21:29:47 19° N 21:32:15 10° NE visible
23 May -1.5 23:04:30 10° NW 23:07:11 22° NNE 23:07:50 21° NNE visible
24 May -1.2 20:36:00 10° WNW 20:38:38 21° NNW 20:41:16 10° NE visible
24 May -1.1 22:13:33 10° NW 22:16:02 19° N 22:18:24 11° NE visible
24 May -1.3 23:49:57 10° NW 23:51:06 19° NW 23:51:06 19° NW visible
25 May -1.0 21:22:28 10° NW 21:24:50 18° N 21:27:13 10° NE visible
25 May -2.0 22:59:05 10° NW 23:01:43 31° N 23:01:43 31° N visible
26 May -1.0 20:31:14 10° NW 20:33:38 18° N 20:36:02 10° NE visible
26 May -1.7 22:08:12 10° NW 22:11:00 25° NNE 22:12:21 19° NE visible
26 May -1.0 23:44:33 10° WNW 23:45:03 14° WNW 23:45:03 14° WNW visible
27 May -1.4 21:17:15 10° NW 21:19:49 20° N 21:22:24 10° ENE visible
27 May -2.2 22:53:35 10° NW 22:55:42 35° NW 22:55:42 35° NW visible
28 May -1.2 20:26:11 10° NW 20:28:36 18° N 20:31:01 10° NE visible
28 May -2.7 22:02:40 10° NW 22:05:49 39° NNE 22:06:23 36° NE visible
29 May -2.0 21:11:46 10° NW 21:14:42 28° NNE 21:17:04 13° ENE visible
29 May -1.9 22:48:10 10° WNW 22:49:47 25° WNW 22:49:47 25° WNW visible
30 May -1.6 20:20:49 10° NW 20:23:30 22° NNE 20:26:11 10° ENE visible
30 May -3.9 21:57:08 10° NW 22:00:27 81° NNE 22:00:30 80° NE visible
31 May -3.1 21:06:09 10° NW 21:09:23 48° NNE 21:11:14 22° E visible
31 May -1.3 22:43:05 10° W 22:43:57 15° W 22:43:57 15° W visible
01 Jun -2.4 20:15:13 10° NW 20:18:15 33° NNE 20:21:17 10° E visible
01 Jun -3.1 21:51:44 10° WNW 21:54:43 41° SW 21:54:43 41° SW visible
